x

9410230 - La Jolla, Ca (ljac1) Weather Station

10:18 - Wed 6th May 2015 All times are PDT. -7 hours from GMT.

  • Wind
    8mph, 10mph gusts
  • Sea Temp 66°f
  • Air Temp 60°f
  • Sea Pressure 1012.3mb
  • 9410230 - La Jolla, Ca
  • 9410230 - La Jolla, Ca

More Historic Weather Station data

Upgrade to MSW Pro to gain access to the past 30 days of data for over 8000 Wavebouys and Weather Stations around the globe.

Join Pro

Comparision Forecast

View Surf forecast
   
mer. 05/06 10:18 8 10 mph 1012.3mb 66f 60f
10:12 9 11 mph 1012.3mb 66f 60f
10:06 9 13 mph 1012.3mb 66f 60f
10:00 11 14 mph 1012.3mb 66f 60f
9:54 10 13 mph 1012.3mb 66f 60f
9:48 11 13 mph 1012.3mb 66f 60f
9:42 7 9 mph 1012.1mb 66f 61f
9:36 6 9 mph 1012.1mb 66f 60f
9:30 7 9 mph 1012mb 66f 61f
9:24 7 8 mph 1012mb 66f 60f
9:18 6 8 mph 1012mb 66f 60f
9:12 6 8 mph 1011.9mb 66f 60f
9:06 6 8 mph 1011.9mb 66f 60f
9:00 7 9 mph 1011.8mb 66f 60f
8:54 5 8 mph 1011.7mb 66f 60f
8:48 5 6 mph 1011.6mb 66f 61f
8:42 6 7 mph 1011.6mb 66f 60f
8:36 5 7 mph 1011.6mb 66f 61f
8:30 5 7 mph 1011.6mb 66f 60f
8:24 6 7 mph 1011.5mb 66f 60f
8:18 6 8 mph 1011.5mb 66f 60f
8:12 3 6 mph 1011.5mb 66f 61f
8:06 5 6 mph 1011.5mb 66f 60f
8:00 6 7 mph 1011.5mb 65f 60f
7:54 5 7 mph 1011.5mb 65f 61f
7:48 5 6 mph 1011.5mb 65f 60f
7:42 5 8 mph 1011.5mb 65f 61f
7:36 5 8 mph 1011.5mb 65f 60f
7:30 6 9 mph 1011.5mb 66f 60f
7:24 8 9 mph 1011.5mb 66f 61f
7:18 7 8 mph 1011.6mb 66f 61f
7:12 7 9 mph 1011.6mb 66f 60f
7:06 8 10 mph 1011.5mb 66f 60f
7:00 8 10 mph 1011.5mb 66f 60f
6:48 7 10 mph 1011.4mb 66f 61f
6:42 7 10 mph 1011.4mb 66f 61f
6:36 8 10 mph 1011.4mb 66f 61f
6:30 8 10 mph 1011.4mb 66f 60f
6:24 8 11 mph 1011.5mb 66f 61f
6:18 10 11 mph 1011.5mb 66f 60f
6:12 10 13 mph 1011.5mb 66f 61f
6:06 9 11 mph 1011.5mb 66f 61f
6:00 9 13 mph 1011.4mb 67f 61f
5:54 9 13 mph 1011.4mb 66f 61f
5:48 9 13 mph 1011.4mb 66f 61f
5:42 10 11 mph 1011.4mb 65f 61f
5:36 9 11 mph 1011.3mb 65f 61f
5:30 9 13 mph 1011.3mb 65f 61f
5:24 10 13 mph 1011.3mb 65f 61f
5:18 10 13 mph 1011.4mb 65f 61f
5:12 11 13 mph 1011.4mb 65f 61f
5:06 10 14 mph 1011.3mb 66f 61f
5:00 10 11 mph 1011.3mb 66f 61f
4:54 9 10 mph 1011.3mb 66f 61f
4:48 7 10 mph 1011.4mb 66f 61f
4:42 8 10 mph 1011.4mb 67f 61f
4:36 7 9 mph 1011.3mb 66f 62f
4:30 6 10 mph 1011.3mb 66f 61f
4:24 8 10 mph 1011.3mb 66f 61f
4:18 9 10 mph 1011.3mb 66f 61f
4:12 9 11 mph 1011.4mb 67f 61f
4:06 10 11 mph 1011.4mb 67f 61f
4:00 8 11 mph 1011.4mb 67f 61f
3:54 9 11 mph 1011.5mb 67f 61f
3:36 10 13 mph 1011.5mb 66f 60f
3:30 9 13 mph 1011.6mb 66f 61f
3:24 10 11 mph 1011.6mb 66f 61f
3:18 10 11 mph 1011.6mb 66f 61f
3:12 7 10 mph 1011.6mb 66f 61f
3:06 8 9 mph 1011.6mb 66f 61f
3:00 7 10 mph 1011.7mb 66f 61f
2:54 7 9 mph 1011.8mb 66f 60f
2:48 9 11 mph 1011.8mb 66f 60f
2:42 8 11 mph 1011.9mb 66f 60f
2:36 9 10 mph 1011.9mb 66f 60f
2:30 8 10 mph 1011.9mb 66f 60f
2:24 9 13 mph 1012mb 66f 60f
2:18 11 14 mph 1012.1mb 66f 60f
2:12 10 13 mph 1012.1mb 66f 61f
2:06 13 14 mph 1012.1mb 66f 60f
2:00 11 14 mph 1012.2mb 66f 60f
1:54 13 15 mph 1012.2mb 66f 61f
1:48 14 15 mph 1012.1mb 66f 61f
1:42 11 15 mph 1012.1mb 66f 61f
1:36 9 13 mph 1012.2mb 66f 62f
1:30 9 11 mph 1012.1mb 66f 61f
1:24 9 14 mph 1012.1mb 65f 62f
1:18 10 13 mph 1012.2mb 66f 62f
1:12 9 11 mph 1012.3mb 66f 61f
1:06 10 11 mph 1012.3mb 66f 61f
1:00 9 13 mph 1012.4mb 66f 61f
12:54 11 14 mph 1012.5mb 66f 61f
12:48 11 14 mph 1012.5mb 66f 61f
12:42 11 14 mph 1012.5mb 66f 61f
12:36 11 14 mph 1012.5mb 66f 61f
12:30 10 13 mph 1012.5mb 66f 61f
12:24 10 14 mph 1012.5mb 66f 61f
12:18 10 13 mph 1012.6mb 66f 61f
12:12 11 14 mph 1012.6mb 66f 61f
12:06 11 14 mph 1012.5mb 66f 61f
12:00 10 13 mph 1012.6mb 66f 61f
11:54 9 11 mph 1012.6mb 66f 61f
11:48 10 13 mph 1012.7mb 66f 61f
11:42 10 13 mph 1012.7mb 66f 61f
11:36 9 11 mph 1012.7mb 66f 61f
11:30 9 11 mph 1012.7mb 66f 61f
11:24 8 11 mph 1012.8mb 66f 61f
11:18 9 10 mph 1012.8mb 66f 61f
11:00 9 10 mph 1012.8mb 66f -
10:54 9 11 mph 1012.8mb 66f 61f
10:48 11 13 mph 1012.8mb 66f 61f
10:42 9 13 mph 1012.8mb 65f 61f
10:36 10 11 mph 1012.8mb 65f 61f
10:30 9 13 mph 1012.8mb 66f 61f
10:18 9 11 mph 1012.8mb 65f 61f
10:12 9 11 mph 1012.8mb 65f 61f
10:00 9 11 mph 1012.8mb 65f 62f
9:54 7 10 mph 1012.8mb 65f 62f
9:48 7 9 mph 1012.8mb 65f 61f
9:42 10 13 mph 1012.8mb 65f 61f
9:36 5 9 mph 1012.8mb 65f 62f
9:30 7 8 mph 1012.9mb 65f 62f
9:24 6 8 mph 1012.9mb 65f 62f
9:06 6 9 mph 1012.9mb 65f 62f
9:00 7 10 mph 1012.9mb 65f 61f
8:54 6 8 mph 1012.8mb 65f 62f
8:48 6 9 mph 1012.8mb 65f 61f
8:42 5 8 mph 1012.9mb 65f 62f
8:30 8 9 mph 1012.9mb 65f 61f
8:24 8 9 mph 1012.9mb 65f 61f
8:18 6 8 mph 1012.9mb 65f 61f
8:06 5 6 mph 1012.9mb 65f 62f
8:00 6 8 mph 1012.9mb 65f 61f
7:54 6 7 mph 1012.8mb 65f 61f
7:48 6 7 mph 1012.8mb 65f -
7:42 5 6 mph 1012.7mb 64f 61f
7:30 6
mph
1012.6mb 64f 61f
7:24 5 6 mph 1012.6mb 64f 61f
7:18 6 7 mph 1012.6mb 64f 61f
7:12 6 7 mph 1012.6mb 64f 61f
7:06 6 7 mph 1012.6mb 64f 61f
7:00 6 8 mph 1012.6mb 64f 61f
6:54 7 9 mph 1012.6mb 64f 61f
6:48 7 8 mph 1012.6mb 64f 61f
6:42 6 8 mph 1012.5mb 63f 61f
6:36 7 9 mph 1012.5mb 63f 61f
6:30 6 9 mph 1012.5mb 64f 61f
6:24 7 8 mph 1012.4mb 63f 61f
6:06 3 6 mph 1012.4mb 64f 61f
6:00 5 6 mph 1012.4mb 64f 61f
5:54 3 6 mph 1012.4mb 64f 61f
5:48 3 6 mph 1012.3mb 65f 61f
5:42 3 7 mph 1012.3mb 65f 61f
5:36 5 6 mph 1012.3mb 66f 61f
5:30 6 8 mph 1012.3mb 66f 61f
5:24 6 8 mph 1012.2mb 66f 61f
5:18 6 7 mph 1012.3mb 66f 60f
5:12 5 6 mph 1012.4mb 66f 60f
5:06 3 5 mph 1012.5mb 66f 61f
5:00 3 5 mph 1012.5mb 66f 61f
4:54 3
mph
1012.5mb 66f 60f
4:48 3 5 mph 1012.5mb 66f 60f
4:42 3
mph
1012.5mb 66f 61f
4:36 3 5 mph 1012.6mb 66f 61f
4:30 3 6 mph 1012.6mb 66f 61f
4:24 3 5 mph 1012.6mb 66f 61f
4:18 3 5 mph 1012.6mb 66f 61f
4:12 5 6 mph 1012.7mb 66f 61f
4:06 6 7 mph 1012.7mb 66f 61f
4:00 6
mph
1012.8mb 66f 61f
3:54 5
mph
1012.9mb 66f 61f
3:48 5 6 mph 1012.8mb 66f 61f
3:42 3
mph
1012.9mb 66f 61f
3:36 2 3 mph 1012.9mb 66f 61f
3:30 2 5 mph 1013mb 66f 61f
3:24 2 5 mph 1013mb 66f 61f
3:18 5
mph
1013mb 66f 61f
3:12 3 5 mph 1013.1mb 66f 61f
3:06 2 5 mph 1013.1mb 66f 61f
3:00 3 5 mph 1013.1mb 66f 61f
2:54 2 5 mph 1013.2mb 66f 61f
2:48 2 5 mph 1013.2mb 66f 61f
2:42 5 6 mph 1013.2mb 66f 61f
2:36 2 5 mph 1013.3mb 66f 61f
2:30 2 5 mph 1013.3mb 66f 61f
2:24 3 5 mph 1013.4mb 66f 61f
2:18 5 7 mph 1013.5mb 66f 61f
2:12 5 6 mph 1013.6mb 66f 61f
2:06 5 7 mph 1013.6mb 66f 61f
2:00 6 7 mph 1013.7mb 66f 61f
1:54 5 6 mph 1013.8mb 66f 61f
1:48 6 7 mph 1013.8mb 66f 61f
1:42 3 7 mph 1013.8mb 66f 61f
1:36 3 6 mph 1013.9mb 66f 61f
1:30 5 7 mph 1013.9mb 66f 61f
1:24 2 5 mph 1014mb 66f 61f
1:18 3 5 mph 1014mb 66f 61f
1:12 2 3 mph 1014mb 66f 61f
1:06 2 6 mph 1014mb 65f 61f
1:00 2 5 mph 1014.1mb 65f 61f
12:54 3 6 mph 1014.2mb 64f 61f
12:48 3 6 mph 1014.3mb 63f 61f
12:42 5 6 mph 1014.3mb 64f 61f
12:36 5 6 mph 1014.4mb 63f 61f
12:30 5 6 mph 1014.5mb 64f 61f
12:24 5 6 mph 1014.5mb 64f 61f
12:18 5 6 mph 1014.5mb 65f 61f
12:12 3 5 mph 1014.6mb 66f 61f
12:06 2
mph
1014.6mb 65f 61f
12:00  -  1 mph 1014.6mb 65f 61f
mar. 05/05 11:54 1 2 mph 1014.6mb 65f 61f
11:36  -  1 mph - 65f 61f
11:24 1 5 mph 1014.7mb 65f 61f
10:54 5
mph
1014.8mb 65f 61f
10:48  -  3 mph 1014.8mb 65f 61f
10:42 3 5 mph 1014.8mb 65f 61f
10:36  -  1 mph 1014.8mb 65f 61f
10:30  -  2 mph 1014.9mb 65f 61f
10:24 2 3 mph 1014.9mb 65f 60f
10:18 1 5 mph 1015mb 65f 60f
10:12 3 6 mph 1015mb 65f 60f
10:06 2 3 mph 1014.9mb 66f 61f
10:00 2 3 mph 1014.9mb 66f 60f
9:54 2 5 mph 1014.9mb 66f 60f
9:48 3 5 mph 1014.9mb 66f 60f
9:42 3 6 mph 1014.9mb 66f 60f
9:36 3 6 mph 1014.8mb 66f 60f
9:30 2 6 mph 1014.8mb 66f 61f
9:24 3 6 mph 1014.7mb 66f 60f
9:18 3 6 mph 1014.6mb 66f 60f
9:12 2 3 mph 1014.5mb 66f 60f
9:06 2 5 mph 1014.5mb 66f 60f
9:00 3 6 mph 1014.5mb 66f 60f
8:54 3 6 mph 1014.4mb 66f 60f
8:48 5 6 mph 1014.3mb 66f 60f
8:42 3 5 mph 1014.3mb 66f 60f
8:36 5 6 mph 1014.2mb 66f 60f
8:30 5 6 mph 1014.1mb 66f 60f
8:24 6
mph
1014.1mb 66f 60f
8:18 5 7 mph 1014.1mb 66f 60f
8:12 6 8 mph 1014mb 66f 60f
8:06 6 8 mph 1014mb 66f 61f
8:00 7 9 mph 1014mb 66f 61f
7:54 8 9 mph 1014mb 66f 61f
7:48 6 9 mph 1014mb 66f 61f
7:42 8 9 mph 1014mb 66f 61f
7:36 9 10 mph 1013.9mb 66f 60f
7:30 7 8 mph 1013.8mb 66f 61f
7:24 6 8 mph 1013.8mb 66f 61f
7:18 7 9 mph 1013.8mb 66f 61f
7:12 6 9 mph 1013.8mb 66f 61f
7:06 7 9 mph 1013.8mb 66f 61f
7:00 7 9 mph 1013.8mb 66f 61f
6:48 7 9 mph 1013.9mb 66f 62f
6:42 7 9 mph 1013.9mb 66f 62f
6:36 7 9 mph 1013.9mb 66f 62f
6:30 8 10 mph 1013.9mb 66f 62f
6:24 8 10 mph 1013.9mb 66f 62f
6:18 8 10 mph 1013.9mb - -
6:12 7 9 mph 1013.9mb 66f 62f
6:06 6 9 mph 1013.9mb 66f 62f
6:00 6 7 mph 1013.9mb 66f 62f
5:54 5 8 mph 1014mb 66f 62f
5:48 6 8 mph 1013.9mb 66f -
5:42 7 9 mph 1014mb 66f 62f
5:30 6 8 mph 1014mb 66f 62f
5:24 7 9 mph 1013.8mb 66f 62f
5:18 7 8 mph 1013.9mb 67f 61f
5:12 7 8 mph 1013.9mb 66f 62f
5:00 7 9 mph 1014mb 66f 62f
4:54 6 10 mph 1014.1mb 66f 63f
4:48 5 9 mph 1014.1mb 66f 63f
4:42 7 9 mph 1014.2mb 66f 62f
4:36 7 9 mph 1014.3mb 66f 62f
4:30 7 10 mph 1014.2mb 66f 62f
4:24 8 10 mph 1014.3mb 66f 62f
4:18 8 10 mph 1014.4mb 66f 62f
4:12 8 10 mph 1014.4mb 66f 62f
4:06 8 11 mph 1014.4mb 66f 62f
4:00 8 11 mph 1014.5mb 65f 62f
3:54 10 11 mph 1014.6mb 65f 62f
3:48 9 11 mph 1014.7mb 66f 62f
3:42 7 8 mph 1014.7mb 66f 62f
3:36 9 10 mph 1014.8mb 66f 62f
3:30 8 13 mph 1014.8mb 66f 62f
3:24 8 10 mph 1014.8mb 66f 63f
3:18 7 11 mph 1014.8mb 66f 63f
3:12 10 11 mph 1014.9mb 66f 62f
3:06 9 11 mph 1014.8mb 66f 62f
3:00 9 11 mph 1014.9mb 66f 62f
2:54 8 11 mph 1014.9mb 66f 62f
2:48 10 13 mph 1015mb 66f 62f
2:42 8 10 mph 1015mb 66f 62f
2:30 9 13 mph - - -
2:24 8 10 mph 1015.2mb 66f 62f
2:18 8 10 mph 1015.2mb 66f 62f
2:12 8 11 mph 1015.2mb 66f 62f
2:06 8 11 mph 1015.3mb 66f 62f
2:00 9 11 mph 1015.3mb 66f 62f
1:54 8 10 mph 1015.4mb 66f 62f
1:48 8 10 mph 1015.4mb 66f 62f
1:42 9 13 mph 1015.4mb 66f 62f
1:36 9 11 mph 1015.5mb 66f 62f
1:30 8 11 mph 1015.5mb 66f 62f
1:24 9 11 mph 1015.5mb 66f 62f
1:18 8 11 mph 1015.5mb 66f 62f
1:06 9 10 mph 1015.5mb 66f 63f
1:00 7 10 mph 1015.5mb 66f 62f
12:54 9 11 mph 1015.5mb 66f 62f
12:48 8 11 mph - - -
12:42 6 8 mph 1015.6mb 66f 62f
12:36 8 9 mph 1015.6mb 66f 62f
12:30 6 9 mph 1015.6mb 66f 62f
12:24 7 8 mph 1015.6mb 66f 62f
12:18 7 9 mph 1015.7mb 66f 62f
12:12 7 8 mph 1015.7mb 66f 62f
12:06 7 8 mph 1015.7mb 66f 62f
12:00 7 9 mph 1015.7mb 66f 62f
11:54 6 8 mph 1015.8mb 66f 62f
11:48 6 8 mph 1015.8mb 66f 62f
11:42 7 8 mph 1015.8mb 66f 62f
11:36 6 8 mph 1015.9mb 66f 62f
11:30 6 7 mph 1015.9mb 66f 62f
11:24 6 7 mph 1015.9mb 66f 62f
11:18 6 8 mph 1015.9mb 66f 62f
11:12 6 8 mph 1015.9mb 66f 62f
11:06 6 8 mph 1016mb 66f 62f
11:00 3 6 mph 1015.9mb 66f 63f
10:54 3 5 mph 1015.9mb 66f 63f
10:48 2 5 mph 1015.8mb - -
10:42 3 6 mph 1015.8mb 66f 63f
10:36 3 5 mph 1015.9mb 66f 63f
10:30 3 5 mph 1015.8mb 66f 63f
10:24 2 5 mph 1015.8mb 66f 63f
10:18 5 7 mph 1015.8mb 66f 62f
10:12 6 7 mph 1015.8mb 66f 62f
10:06 6 7 mph 1015.8mb 66f 62f
10:00 6 7 mph 1015.7mb 66f 62f
9:54 6 8 mph 1015.7mb 66f 62f
9:48 6 8 mph 1015.7mb - -
9:42 6
mph
1015.7mb 66f 62f
9:36 5 7 mph 1015.8mb 66f 62f
9:30 5 6 mph 1015.7mb 66f 62f
9:24 6
mph
1015.7mb 66f 62f
9:18 3 7 mph 1015.7mb 66f 61f
9:12 6 8 mph 1015.7mb 66f 61f
9:06 5 7 mph 1015.7mb 66f 61f
9:00 6 8 mph 1015.7mb 66f 61f
8:54 6 7 mph 1015.7mb 66f 61f
8:48 6 7 mph 1015.6mb - -
8:42 6 8 mph 1015.7mb 66f 61f
8:36 7 8 mph 1015.8mb 66f 61f
8:30 7 8 mph 1015.7mb 65f 61f
8:24 6 9 mph 1015.7mb 65f 61f
8:18 8 10 mph 1015.7mb 65f 61f
8:12 7 8 mph 1015.7mb 65f 61f
8:06 7 9 mph 1015.6mb 65f 61f
8:00 6 8 mph 1015.7mb 65f 61f
7:54 8 10 mph 1015.6mb 65f 61f
7:48 8 10 mph - - -
7:42 8 10 mph 1015.7mb 65f 61f
7:36 8 10 mph 1015.7mb 65f 61f
7:30 7 8 mph 1015.7mb 65f 61f
7:18 7 8 mph 1015.7mb 65f 61f
7:12 5 7 mph 1015.7mb 65f 61f
7:06 6 7 mph 1015.7mb 65f 61f
7:00 6 8 mph 1015.7mb 64f 61f
6:54 7 9 mph 1015.7mb 63f 61f
6:48 6 8 mph 1015.6mb 64f 61f
6:42 6 9 mph 1015.5mb 64f 61f
6:36 7 10 mph 1015.6mb 63f 61f
6:30 8 9 mph 1015.6mb 63f 61f
6:24 8 10 mph 1015.6mb 63f 61f
6:18 5 6 mph 1015.5mb 63f 61f
6:12 5 8 mph 1015.5mb 64f 61f
6:06 5 6 mph 1015.4mb 64f 61f
6:00 3 5 mph 1015.3mb 64f 61f
5:54 2 3 mph 1015.3mb 65f 61f
5:48 2 5 mph 1015.3mb 65f 61f
5:42 3 6 mph 1015.2mb 65f 61f
5:36 3 5 mph 1015.3mb 64f 61f
5:30 5 7 mph 1015.3mb 64f 61f
5:24 6 7 mph 1015.3mb 64f 61f
5:18 5 7 mph 1015.3mb 65f 61f
5:12 6 7 mph 1015.3mb 64f 61f
5:06 8 9 mph 1015.3mb 64f 61f
5:00 6 9 mph 1015.3mb 65f 61f
4:48 7 9 mph 1015.4mb 65f 61f
4:42 6 9 mph 1015.3mb 66f 61f
4:36 7 9 mph 1015.3mb 66f 61f
4:30 6 7 mph 1015.3mb 66f 61f
4:24 5 6 mph 1015.3mb 66f 61f
4:06 5 6 mph 1015.3mb 66f 61f
4:00 3 5 mph 1015.4mb 66f 61f
3:54 5 6 mph 1015.4mb 66f 61f
3:48 5 6 mph 1015.3mb 66f 61f
3:42 6 8 mph 1015.3mb 66f 60f
3:36 6 8 mph 1015.3mb 66f 61f
3:30 5 7 mph 1015.3mb 66f 61f
3:24 6 9 mph 1015.3mb 66f 61f
3:18 7 8 mph 1015.4mb 66f 61f
3:12 6 7 mph 1015.4mb 66f 61f
3:06 1 5 mph 1015.4mb 66f 61f
3:00 1 5 mph 1015.4mb 66f 61f
2:54 5
mph
1015.5mb 66f 60f
2:48 2 3 mph 1015.5mb 66f 61f
2:42  -  3 mph 1015.5mb 66f 61f
2:36 2 5 mph 1015.5mb 66f 61f
2:30 3 6 mph 1015.6mb 66f 60f
2:24  -  1 mph 1015.5mb 66f 60f
2:18  -  1 mph 1015.5mb 66f 60f
2:12  -  2 mph 1015.5mb 66f 60f
2:06 1 6 mph 1015.6mb 66f 60f
2:00 3 6 mph 1015.7mb 66f 60f
1:54 2 7 mph 1015.6mb 66f 60f
1:48 7 9 mph 1015.7mb 66f 60f
1:42 7 9 mph 1015.7mb 66f 60f
1:36 6 8 mph 1015.8mb 66f 61f
1:30 3 10 mph 1015.8mb 66f 60f
1:24 8 10 mph 1015.9mb 66f 61f
1:06 7 10 mph 1015.8mb 66f 61f
1:00 7 10 mph 1015.9mb 66f 61f
12:54 8 9 mph 1016mb 66f 61f
12:48 8 10 mph 1016.1mb 66f 61f
12:36 6 7 mph 1016.1mb 66f 61f
12:30 6 8 mph 1016.1mb 66f -
12:24 5 7 mph 1016mb 66f 61f
12:18 7 9 mph 1016.1mb 66f 61f
12:12 5 8 mph 1016.2mb 66f 61f
12:00 8 9 mph 1016.2mb 66f 61f
lun. 05/04 11:54 6 9 mph 1016.2mb 66f 61f
11:48 7 11 mph 1016.2mb 66f 61f
11:36 8 9 mph 1016.2mb 66f 61f
10:54 7 8 mph 1016.1mb 67f 61f
10:48 5 8 mph 1016mb 67f 61f
10:42 7 9 mph 1016mb 67f 61f
10:36 6 8 mph 1016mb 67f 62f
10:30 8 10 mph 1016mb 67f 61f
10:24 6 8 mph 1016mb 67f 61f
10:18 6 8 mph 1016.1mb - -
10:12 5 7 mph 1016.1mb 67f 61f
10:06 6 7 mph 1016mb 67f 61f
10:00 6 7 mph 1015.9mb 67f 61f
9:54 3 7 mph 1015.9mb 67f 61f
9:48 6 7 mph - - -
9:42 5 8 mph 1015.9mb 67f 61f
9:36 5 7 mph 1015.9mb 67f 61f
9:30 6 9 mph 1015.8mb 67f 61f
9:24 7 9 mph 1015.7mb 67f 61f
9:18 3 8 mph 1015.6mb 67f 61f
9:12 6 7 mph 1015.5mb 67f 61f
9:06 7 8 mph 1015.4mb 67f 61f
9:00 5 7 mph 1015.3mb 67f 61f
8:54 6 8 mph 1015.2mb 67f 61f
8:48 5 8 mph 1015.1mb 67f 61f
8:42 7 9 mph 1015.1mb 67f 61f
8:36 6 10 mph 1015.1mb 67f 61f
8:30 7 9 mph 1015.1mb 67f 61f
8:24 6 8 mph 1014.9mb 67f 61f
8:18 6 8 mph 1014.8mb 67f 61f
8:12 8 9 mph 1014.8mb 67f 61f
8:06 6 7 mph 1014.7mb 67f 61f
8:00 6 9 mph 1014.7mb 67f 61f
7:54 5 7 mph 1014.7mb 67f 61f
7:48 7 10 mph 1014.7mb 67f 61f
7:42 6 7 mph 1014.7mb 67f 61f
7:30 7 8 mph 1014.6mb 67f 61f
7:24 7 8 mph 1014.7mb 67f 61f
7:18 7 9 mph 1014.7mb 67f 61f
7:12 8 10 mph 1014.6mb 67f 61f
7:06 7 9 mph 1014.6mb 67f 61f
7:00 8 10 mph 1014.5mb 67f 61f
6:48 9 10 mph 1014.3mb 67f 61f
6:42 8 10 mph 1014.3mb 67f 61f
6:36 7 11 mph 1014.3mb 67f 61f
6:30 7 10 mph 1014.2mb 67f 61f
6:24 9 10 mph 1014.1mb 67f 61f
6:18 8 10 mph 1014.1mb 67f 62f
6:00 8 11 mph 1013.9mb 67f -
5:54 10 11 mph 1013.9mb 67f 62f
5:48 10 13 mph 1013.9mb 67f 62f
5:42 9 11 mph 1013.9mb 67f 62f
5:36 8 11 mph 1013.9mb 67f 62f
5:30 9 13 mph 1013.9mb 67f 62f
5:24 8 11 mph 1014mb 67f 62f
5:18 11 13 mph 1014mb 67f 62f
5:12 9 14 mph 1013.9mb 67f 62f
5:06 11 14 mph 1013.8mb 67f 62f
5:00 11 15 mph 1013.8mb 67f 62f
4:54 11 15 mph 1013.8mb 67f 62f
4:48 11 15 mph 1013.8mb 67f 62f
4:42 11 14 mph 1013.8mb 67f 62f
4:36 13 15 mph 1013.8mb 67f 62f
4:30 11 15 mph 1013.8mb 67f 62f
4:24 11 15 mph 1013.9mb 67f 62f
4:18 13 14 mph 1013.9mb 67f 62f
4:12 10 15 mph 1014mb 67f 63f
4:06 13 15 mph 1014mb 67f 62f
4:00 13 16 mph 1014mb 67f 62f
3:54 11 16 mph 1014.1mb 67f 62f
3:48 13 16 mph 1014.2mb 67f 62f
3:42 15 16 mph 1014.2mb 67f 62f
3:36 13 15 mph 1014.2mb 67f 62f
3:30 14 15 mph 1014.4mb 67f 62f
3:24 11 16 mph 1014.5mb 67f 62f
3:18 14 16 mph 1014.5mb 67f 62f
3:12 14 16 mph 1014.5mb 67f 62f
3:06 15 17 mph 1014.6mb 67f 62f
3:00 14 17 mph 1014.6mb 67f 62f
2:54 15 17 mph 1014.6mb 67f 62f
2:48 16 17 mph 1014.6mb 67f 62f
2:42 15 18 mph 1014.6mb 67f 62f
2:30 14 18 mph - - -
2:24 14 20 mph 1014.6mb 67f 62f
2:18 14 16 mph 1014.7mb 67f 63f
2:12 14 16 mph 1014.7mb 67f 62f
2:06 14 16 mph 1014.8mb 67f 62f
2:00 15 17 mph 1014.8mb 67f 62f
1:54 14 17 mph 1014.9mb 67f 62f
1:48 14 16 mph 1014.9mb 67f 62f
1:42 13 16 mph 1015mb 67f 63f
1:36 13 15 mph 1015.1mb 67f 62f
1:30 14 17 mph 1015.1mb 67f 62f
1:24 13 16 mph 1015mb 66f 62f
1:18 13 16 mph 1015mb 66f 63f
1:12 13 16 mph 1015.1mb 67f 63f
1:06 11 16 mph 1015.1mb 66f 63f
1:00 14 16 mph 1015mb 66f 62f
12:54 13 17 mph 1015.1mb 66f 63f
12:48 13 16 mph 1015.1mb 66f 63f
12:42 14 16 mph 1015.2mb 66f 63f
12:36 13 16 mph 1015.2mb 66f 62f
12:30 11 15 mph 1015.3mb 66f 63f
12:24 13 15 mph 1015.3mb 66f 62f
12:18 13 15 mph 1015.3mb 66f 63f
12:12 10 13 mph 1015.4mb 66f 63f
12:06 9 14 mph 1015.4mb 66f 63f
12:00 13 14 mph 1015.4mb 66f 63f
11:54 10 13 mph 1015.4mb 66f 63f
11:48 11 14 mph 1015.4mb 65f 63f
11:42 10 13 mph 1015.4mb 66f 63f
11:36 9 13 mph 1015.4mb 66f 64f
11:30 8 9 mph 1015.4mb 65f 64f
11:24 7 8 mph 1015.3mb 65f 64f
11:18 6 11 mph 1015.2mb 65f 64f
11:12 7 9 mph 1015.2mb 65f 64f
11:06 9 11 mph 1015.2mb 64f 64f
11:00 8 10 mph 1015.1mb 65f 64f
10:54 7 8 mph 1015.1mb 66f 65f
10:48 6 7 mph 1015.1mb 66f 64f
10:42 3 6 mph 1015.1mb 66f 64f
10:36 3 5 mph 1015.1mb 66f 64f
10:30 3 8 mph 1015.1mb 66f 64f
10:24 6 7 mph 1015mb 66f 64f
10:06 6 7 mph 1014.8mb 66f 64f
10:00 3 7 mph 1014.7mb 66f 64f
9:54 5 8 mph 1014.7mb 66f 64f
9:48 5 7 mph 1014.7mb 66f 64f
9:36 5 7 mph 1014.8mb 66f 63f
9:30 6 8 mph 1014.8mb 66f 63f
9:24 7
mph
1014.7mb 66f 63f
9:18 6 7 mph 1014.6mb 66f 63f
9:12 7 8 mph 1014.6mb 66f 63f
9:06 6
mph
1014.5mb 66f 63f
9:00 6 7 mph 1014.5mb 66f 63f
8:54 6 7 mph 1014.5mb 66f 63f
8:48 3 6 mph 1014.4mb 66f 63f
8:42 5 6 mph 1014.4mb 66f 63f
8:36 5 7 mph 1014.3mb 66f 63f
8:30 6 8 mph 1014.3mb 66f 63f
8:18 9 11 mph 1014.2mb 66f 62f
8:12 10 11 mph 1014.1mb 66f 62f
8:06 8 10 mph 1014.1mb 66f 62f
8:00 7 8 mph 1014.2mb 66f 62f
7:54 5 7 mph 1014.1mb 66f 62f
7:48 6 8 mph 1014.1mb 66f 62f
7:36 7 8 mph 1014mb 65f 62f
7:24 8 10 mph 1014mb 65f 62f
7:18 8 9 mph 1013.9mb 65f 62f
7:12 8 10 mph 1013.8mb 65f 62f
7:06 8 10 mph 1013.8mb 65f 62f
7:00 9 10 mph 1013.7mb 65f 62f
6:54 6 8 mph 1013.7mb 65f 62f
6:48 6 8 mph 1013.6mb 64f 62f
6:42 6 8 mph 1013.5mb 64f 62f
6:36 6 9 mph 1013.4mb 64f 62f
6:30 6 8 mph 1013.4mb 64f 62f
6:24 6 9 mph 1013.3mb 64f 62f
6:18 6 8 mph 1013.2mb 64f 62f
6:00 7 9 mph 1013mb 64f 62f
5:54 7 9 mph 1013mb 64f 62f
5:48 7 10 mph 1012.9mb 64f 62f
5:42 8 9 mph 1012.9mb 64f 62f
5:30 8 10 mph 1012.8mb 64f 62f
5:24 8 9 mph 1012.7mb 64f 62f
5:18 7 9 mph 1012.7mb 64f 62f
5:12 6 10 mph 1012.7mb 64f 62f
5:06 7 9 mph 1012.8mb 64f 61f
5:00 7 8 mph 1012.8mb 64f 61f
4:48 7 9 mph 1012.7mb 64f 61f
4:42 6 8 mph 1012.7mb 64f 61f
4:36 7 9 mph 1012.7mb 64f 61f
4:30 7 8 mph 1012.7mb 64f 61f
4:24 7 9 mph 1012.6mb 64f 61f
4:18 7 10 mph 1012.6mb 64f 61f
4:12 8 10 mph 1012.6mb 64f 61f
4:06 8 10 mph 1012.7mb 64f 61f
4:00 8 13 mph 1012.7mb 63f 61f
3:54 10 11 mph 1012.6mb 64f 61f
3:48 10 13 mph 1012.6mb - -
3:42 10 13 mph 1012.6mb 64f 60f
3:36 10 11 mph 1012.7mb 64f 61f
3:30 9 11 mph 1012.7mb 64f 61f
3:24 8 10 mph 1012.7mb 65f 61f
3:18 10 13 mph 1012.7mb 65f 61f
3:12 9 13 mph 1012.8mb 65f 61f
3:06 10 11 mph 1012.8mb 65f 62f
3:00 9
mph
1012.8mb 65f 62f
2:54 7 9 mph 1012.8mb 65f 62f
2:48 7 8 mph 1012.8mb 65f 62f
2:42 6 9 mph 1012.8mb 65f 62f
2:36 6 7 mph 1012.8mb 65f 62f
2:30 5 7 mph 1012.8mb 65f 62f
2:24 5 7 mph 1012.9mb 64f 62f
2:18 5 6 mph 1012.9mb 64f 62f
2:12 5 6 mph 1012.9mb 65f 62f
2:06 3 7 mph 1012.9mb 65f 62f
2:00 5 6 mph 1013mb 64f 62f
1:54 5 6 mph 1013mb 64f 62f
1:48 5 6 mph 1013.1mb 63f 62f
1:42 3 5 mph 1013.1mb 63f 62f
1:36 3 5 mph 1013.2mb 63f 62f
1:30 2 3 mph 1013.2mb 62f 62f
1:24 2 3 mph 1013.2mb 63f 62f
1:18 2 5 mph 1013.2mb 63f 62f
1:12 3 5 mph 1013.2mb 63f 62f
1:06 2 3 mph 1013.3mb 63f 62f
1:00 2 5 mph 1013.3mb 64f 62f
12:54 3 6 mph 1013.4mb 64f 62f
12:48 3 5 mph 1013.4mb 64f 62f
12:42 3 5 mph 1013.4mb 64f 62f
12:36 2 5 mph 1013.4mb 64f 62f
12:30 3 6 mph 1013.4mb 64f 62f
12:24 5 6 mph 1013.4mb 64f 62f
12:18 5 6 mph 1013.4mb 64f 62f
12:12 3 5 mph 1013.5mb 64f 62f
12:06 5 7 mph 1013.5mb 63f 62f
12:00 1 3 mph 1013.5mb 63f 62f
dim. 05/03 11:48 7 8 mph 1013.6mb 63f 62f
11:24 5 6 mph - - -
10:54 1 6 mph 1013.5mb 64f 62f
10:48 7 8 mph 1013.4mb 64f 62f
10:42 2 7 mph 1013.4mb 64f 62f
10:30 5 8 mph - - -
10:24 7 8 mph 1013.3mb 64f 62f
10:18 6 8 mph 1013.3mb 64f 62f
10:12 6 8 mph 1013.3mb 64f 62f
10:00 6 7 mph 1013.2mb 66f 62f
9:54 3 5 mph 1013.1mb 67f 62f
9:48 3 5 mph 1013.1mb 67f 62f
9:42 3 6 mph 1013mb 67f 62f
9:36 3 5 mph 1012.9mb 67f 62f
9:30 3 5 mph 1012.8mb 67f 62f
9:24 3
mph
1012.7mb 67f 62f
9:18 2 3 mph 1012.7mb 67f 62f
9:12 3 5 mph 1012.6mb 67f 62f
9:00 3 5 mph 1012.3mb 67f 62f
8:54 3 6 mph 1012.2mb 67f 62f
8:48 5 6 mph 1012.2mb 67f 62f
8:42 5 6 mph 1012.1mb 67f 62f
8:36 5 7 mph 1012mb 67f 62f
8:30 6 7 mph 1011.9mb 67f 62f
8:24 6 8 mph 1011.9mb 67f 62f
8:06 7 10 mph 1011.7mb 67f 62f
8:00 7 10 mph 1011.7mb 67f 62f
7:54 8 10 mph 1011.7mb 67f 62f
7:48 9 10 mph 1011.6mb 67f 62f
7:42 8 10 mph 1011.5mb 67f 62f
7:36 9 11 mph 1011.5mb 67f 62f
7:30 9 11 mph 1011.4mb 67f 62f
7:18 8 13 mph 1011.3mb 67f 62f
7:12 7 9 mph 1011.3mb 67f 62f
7:06 8 9 mph 1011.2mb 67f 62f
7:00 7 10 mph 1011.2mb 67f 62f
6:48 9 11 mph 1011.1mb 67f 62f
6:42 10 11 mph 1011.2mb 67f 62f
6:36 8 11 mph 1011.2mb 67f 62f
6:30 9 10 mph 1011.2mb 67f 62f
6:24 9 13 mph 1011.3mb 67f 62f
6:18 10 13 mph 1011.3mb 67f 62f
6:06 10 14 mph 1011.3mb 67f 62f
6:00 10 13 mph 1011.3mb 67f 62f
5:54 9 11 mph 1011.4mb 67f 62f
5:48 9 11 mph 1011.4mb 67f 62f
5:42 9 11 mph 1011.4mb 67f 62f
5:36 7 9 mph 1011.4mb 67f 63f
5:30 7 9 mph 1011.5mb 67f 62f
5:24 9 10 mph 1011.5mb 67f 63f
5:18 8 10 mph 1011.6mb 67f 63f
5:12 9 11 mph 1011.7mb 67f 63f
5:06 9 10 mph 1011.7mb 67f 63f
5:00 7 11 mph 1011.7mb 67f 63f
4:54 8 11 mph 1011.7mb 67f 63f
4:48 9 11 mph 1011.7mb 67f 63f
4:42 9 11 mph 1011.8mb 67f 63f
4:36 9 11 mph 1011.8mb 67f 63f
4:30 9 11 mph 1011.8mb 67f 63f
4:24 9 11 mph 1011.8mb 67f 64f
4:18 8 10 mph 1011.9mb 67f 64f
4:12 8 10 mph 1012mb 67f 63f
4:06 8 10 mph 1012mb 67f 63f
4:00 9 10 mph 1012mb 67f 63f
3:54 9 13 mph 1012.1mb 67f 63f
3:36 9 13 mph 1012.2mb 67f 63f
3:30 10 13 mph 1012.3mb 67f 63f
3:24 9 13 mph 1012.3mb 67f 63f
3:18 9 11 mph 1012.4mb 67f 64f
3:12 10 13 mph 1012.4mb 67f 63f
3:06 9 13 mph 1012.5mb 67f 64f
3:00 9 13 mph 1012.6mb 67f 64f
2:48 9 14 mph 1012.7mb 67f 63f
2:42 11 14 mph 1012.8mb 66f 63f
2:36 11 13 mph 1012.9mb 66f 63f
2:30 9 13 mph 1013mb 66f 64f
2:24 10 14 mph 1013.1mb 66f 63f
2:18 10 14 mph 1013.1mb 67f 63f
2:12 11 13 mph 1013.2mb 67f 63f
2:06 11 15 mph 1013.2mb 67f 63f
2:00 11 14 mph 1013.3mb 67f 63f
1:48 11 14 mph 1013.4mb 66f 63f
1:42 10 14 mph 1013.5mb 66f 63f
1:36 11 14 mph 1013.5mb 66f 63f
1:30 11 14 mph 1013.5mb 66f 63f
1:24 11 14 mph 1013.6mb 66f 63f
1:18 11 14 mph - - -
1:12 10 13 mph 1013.6mb 66f 63f
1:06 9 14 mph 1013.7mb 66f 63f
1:00 11 14 mph 1013.7mb 66f 63f
12:54 11 13 mph 1013.7mb 66f 63f
12:48 10 13 mph 1013.8mb 66f 63f
12:42 11 14 mph 1013.7mb 66f 63f
12:36 10 13 mph 1013.7mb 65f 63f
12:30 10 13 mph 1013.7mb 65f 63f
12:24 10 13 mph 1013.7mb 65f 63f
12:18 10 13 mph 1013.8mb 65f 63f
12:12 11 13 mph 1013.8mb 64f 63f
12:06 9 11 mph 1013.8mb 65f 63f
12:00 10 11 mph 1013.9mb 64f 63f
11:54 9 11 mph 1013.9mb 65f 63f
11:48 9 11 mph 1014mb 65f 63f
11:42 9 11 mph 1014mb 66f 63f
11:36 8 10 mph 1014.1mb 66f 64f
11:30 10 11 mph 1014.1mb 66f 63f
11:24 7 10 mph 1014.1mb 66f 64f
11:06 8 9 mph 1014.1mb 66f 63f
11:00 8 9 mph 1014.1mb 65f 64f
10:54 8 9 mph 1014.2mb 65f 63f
10:48 8 9 mph 1014.1mb 65f 63f
10:42 7 9 mph 1014.1mb 65f 64f
10:36 7 9 mph 1014.1mb 65f 64f
10:30 7 9 mph 1014mb 66f 64f
10:24 7 9 mph 1014mb 66f 64f
10:18 8 9 mph - - -
10:12 7 9 mph 1013.9mb 65f 64f
10:06 6 9 mph 1013.8mb 65f 64f
10:00 7 9 mph 1013.8mb 65f 63f
9:54 7 9 mph 1013.7mb 65f 64f
9:48 7 8 mph 1013.7mb 65f 63f
9:42 7 9 mph 1013.6mb 65f 64f
9:36 7 9 mph 1013.6mb 65f 64f
9:30 8
mph
1013.5mb 65f 63f
9:24 6 9 mph 1013.5mb 65f 64f
9:18 7 9 mph 1013.5mb 65f -
9:12 2 5 mph 1013.4mb 65f 65f
9:06 5 6 mph 1013.4mb 65f 64f
9:00 3 5 mph 1013.4mb 65f 64f
8:54 3
mph
1013.3mb 65f 64f
8:48 2 3 mph 1013.3mb - -
8:42 2 3 mph 1013.3mb 65f 64f
8:36 3 5 mph 1013.2mb 65f 64f
8:30 3 5 mph 1013.1mb 65f 64f
8:24 2 3 mph 1013mb 65f 64f
8:18 1 2 mph 1013mb 66f 64f
8:12 1 2 mph 1012.9mb 66f 64f
8:06 2 3 mph 1012.9mb 65f 63f
8:00 2 3 mph 1012.8mb 65f 64f
7:54 3
mph
1012.8mb 65f 64f
7:48 3
mph
1012.7mb 65f 63f
7:42 2 3 mph 1012.6mb 65f 64f
7:36  -  2 mph 1012.6mb 65f 64f
7:30 2
mph
1012.7mb 65f 64f
7:24  -  2 mph 1012.6mb 65f 64f
7:18 1 2 mph 1012.6mb 65f 63f
7:12 1
mph
1012.5mb 65f 63f
7:00 2
mph
1012.4mb 65f 63f
6:54  -  1 mph 1012.3mb 65f 63f
6:48  -  mph 1012.2mb 65f 63f
6:42  -  mph 1012.1mb 65f 62f
6:30  -  2 mph 1012mb 65f 62f
6:24 1 2 mph 1011.9mb 65f 62f
6:18 2
mph
1011.9mb 64f 62f
6:12 2
mph
1011.8mb 64f 62f